Ponca City, OK

1:10 PM CST on February 22, 2017 (GMT -0600)
Ponca City Municipal

Weather History for KPNC - September, 2012

Change the Weather History Date:

Thursday, September 27, 2012

  Actual Average Record
Temperature  
Mean Temperature 68 °F -  
Max Temperature 75 °F 78 °F 97 °F (1953)
Min Temperature 62 °F 56 °F 41 °F (2010)
Cooling Degree Days 4    
Growing Degree Days 18 (Base 50)    
Moisture  
Dew Point 63 °F    
Average Humidity 81    
Maximum Humidity 94    
Minimum Humidity 62    
Precipitation  
Precipitation 0.10 in - - ()
Sea Level Pressure  
Sea Level Pressure 30.08 in    
Wind  
Wind Speed 6 mph (SE)    
Max Wind Speed 15 mph    
Max Gust Speed 22 mph    
Visibility 10 miles    
Events Rain , Thunderstorm    
Averages and records for this station are not official NWS values.
T = Trace of Precipitation, MM = Missing Value Source: NWS Daily Summary

Daily Weather History Graph

Daily Weather History Graph

Search for Another Location

Airport or City:

Trip Planner

Search our weather history database for the weather conditions in past years. The results will help you decide how hot, cold, wet, or windy it might be!

Date:

Astronomy

Sep. 27, 2012 Rise Set
Actual Time 7:20 AM CDT 7:16 PM CDT
Civil Twilight 6:54 AM CDT 7:42 PM CDT
Nautical Twilight 6:24 AM CDT 8:12 PM CDT
Astronomical Twilight 5:54 AM CDT 8:43 PM CDT
Moon 5:47 PM CDT (9/27) 4:54 AM CDT (9/27)
Length of Visible Light 12h 47m
Length of Day
11h 56m
Waxing Gibbous, 94% of the Moon is Illuminated
Sep 27
Waxing Gibbous
Sep 29
Full
Oct 8
Last Quarter
Oct 15
New
Oct 21
First Quarter

Hourly Weather History & Observations

Time (CDT) Temp. Dew Point Humidity Pressure Visibility Wind Dir Wind Speed Gust Speed Precip Events Conditions
12:53 AM 71.1 °F 64.9 °F 81% 30.05 in 10.0 mi SSE 9.2 mph - N/A   Mostly Cloudy
1:09 AM 71.6 °F 62.6 °F 73% 30.07 in 10.0 mi SSE 13.8 mph - N/A   Overcast
1:18 AM 71.6 °F 62.6 °F 73% 30.07 in 10.0 mi SSE 13.8 mph 21.9 mph 0.00 in Rain , Thunderstorm Light Rain
1:45 AM 66.2 °F 64.4 °F 94% 30.08 in 10.0 mi SSW 6.9 mph 16.1 mph 0.01 in Rain Light Rain
1:53 AM 66.0 °F 63.0 °F 90% 30.05 in 10.0 mi South 8.1 mph - 0.01 in Rain Light Rain
2:03 AM 66.2 °F 62.6 °F 88% 30.08 in 10.0 mi South 6.9 mph - 0.00 in Rain Light Rain
2:53 AM 64.9 °F 63.0 °F 93% 30.10 in 10.0 mi West 3.5 mph - 0.00 in Rain Light Rain
3:53 AM 64.9 °F 63.0 °F 93% 30.11 in 7.0 mi East 6.9 mph - 0.08 in Rain Rain
4:53 AM 66.0 °F 64.0 °F 93% 30.05 in 10.0 mi SSW 9.2 mph 16.1 mph 0.01 in Rain Light Rain
5:53 AM 66.9 °F 63.0 °F 87% 29.96 in 10.0 mi SE 15.0 mph - 0.00 in   Clear
6:01 AM 66.2 °F 62.6 °F 88% 30.01 in 10.0 mi SE 5.8 mph - N/A   Clear
6:53 AM 64.9 °F 63.0 °F 93% 30.04 in 10.0 mi North 3.5 mph - N/A   Clear
7:53 AM 64.9 °F 63.0 °F 93% 30.09 in 10.0 mi North 8.1 mph - N/A   Clear
8:53 AM 68.0 °F 64.0 °F 87% 30.10 in 10.0 mi NE 6.9 mph - N/A   Clear
9:50 AM 69.8 °F 62.6 °F 78% 30.14 in 10.0 mi NE 4.6 mph - N/A   Mostly Cloudy
9:53 AM 70.0 °F 63.0 °F 78% 30.12 in 10.0 mi NNE 3.5 mph - N/A   Mostly Cloudy
10:53 AM 70.0 °F 63.0 °F 78% 30.12 in 10.0 mi Calm Calm - N/A   Mostly Cloudy
11:13 AM 71.6 °F 62.6 °F 73% 30.14 in 10.0 mi Calm Calm - N/A   Partly Cloudy
11:53 AM 72.0 °F 62.1 °F 71% 30.11 in 10.0 mi Calm Calm - N/A   Partly Cloudy
12:53 PM 73.0 °F 60.1 °F 64% 30.09 in 10.0 mi Calm Calm - N/A   Clear
1:53 PM 73.9 °F 60.1 °F 62% 30.10 in 10.0 mi Calm Calm - N/A   Partly Cloudy
2:53 PM 73.9 °F 62.1 °F 66% 30.09 in 10.0 mi SSW 4.6 mph - N/A   Mostly Cloudy
3:53 PM 73.0 °F 62.1 °F 68% 30.07 in 10.0 mi Calm Calm - N/A   Partly Cloudy
4:53 PM 73.9 °F 62.1 °F 66% 30.04 in 10.0 mi Calm Calm - N/A   Mostly Cloudy
5:53 PM 73.9 °F 63.0 °F 68% 30.04 in 10.0 mi Calm Calm - N/A   Partly Cloudy
6:53 PM 73.0 °F 63.0 °F 71% 30.05 in 10.0 mi Calm Calm - N/A   Mostly Cloudy
7:53 PM 70.0 °F 64.0 °F 81% 30.06 in 10.0 mi Calm Calm - N/A   Partly Cloudy
8:53 PM 66.9 °F 63.0 °F 87% 30.06 in 10.0 mi Calm Calm - N/A   Clear
9:53 PM 64.9 °F 63.0 °F 93% 30.07 in 10.0 mi Calm Calm - N/A   Clear
10:53 PM 64.0 °F 62.1 °F 93% 30.08 in 9.0 mi Calm Calm - N/A   Clear
11:53 PM 62.6 °F 60.8 °F 94% 30.11 in 10.0 mi North 3.5 mph - N/A   Clear